SCP
-0 0 -0 0 0 0 -0 -0 0 -0 -0 -0 -0 -0 -0 -0 -0 -0 -0 -0 -0 -0 -0 0 0 0 0 0 0 0 0 0 0 0 0 -0 -0 -0 -0 -0 0 -0 -0
-0 -0 -0 -0 -0 -0 -0 -0 -0 -0 0 0 0 0 0 0 0 0 -0 -0 -0 -0 -0 0 0 0 0 0 0 0 0 0 0 0 0 0 -0 -0 -0 -0 0 -0 -0
-0 0 -0 -0 -0 -0 -0 -0 -0 -0 -0 -0 0 0 0 0 -0 -0 0 0 -0 -0 0 0 0 0 0 0 0 0 0 0 0 0 0 0 0 0 0 0 0 -0 -0
-0 -0 -0 0 -0 -0 -0 -0 -0 -0 -0 -0 0 -0 -0 -0 0 0 0 0 -0 -0 0 0 0 0 0 0 0 0 0 0 0 0 0 0 0 0 0 0 0 0 -0
-0 -0 -0 -0 -0 -0 -0 -0 -0 -0 -0 -0 -0 0 0 0 0 0 0 0 0 0 0 0 0 0 0 0 0 0 0 0 0 0 0 0 0 0 0 0 0 0 0
-0 -0 -0 -0 -0 -0 -0 -0 -0 -0 -0 -0 -0 -0 -0 0 0 0 0 0 0 0 -0 -0 -0 0 0 0 0 0 0 0 0 0 0 0 0 0 0 0 0 0 0
-0 -0 -0 -0 -0 -0 -0 -0 -0 -0 -0 -0 -0 -0 -0 0 0 0 0 0 0 -0 -0 -0 -0 -0 0 0 0 0 0 0 0 0 0 0 0 0 0 0 0 0 0
-0 -0 -0 -0 -0 -0 -0 -0 -0 -0 -0 -0 -0 0 0 0 0 0 0 0 0 0 -0 -0 -0 0 0 0 0 0 0 0 0 0 0 0 0 0 0 0 0 0 0
-0 -0 -0 -0 -0 -0 -0 -0 -0 -0 -0 -0 -0 0 0 0 0 0 0 0 0 0 0 -0 -0 0 0 0 0 0 0 0 0 0 0 0 0 0 0 0 0 0 0
0 0 -0 -0 -0 -0 -0 -0 -0 -1 -1 -1 -0 -0 -0 0 0 0 0 0 0 0 0 -0 -0 0 0 0 0 0 0 0 0 0 0 0 0 0 0 0 0 0 0
0 0 0 -0 -0 -0 0 -0 -0 -0 -0 -0 -1 -1 -0 -0 0 0 0 0 0 0 0 -0 -0 0 0 0 0 0 0 0 0 0 0 0 0 0 0 0 0 0 0
0 0 0 0 0 -0 0 -0 -0 -0 -0 -0 -0 -1 -0 -0 -0 0 0 0 0 0 0 0 0 0 0 0 0 0 0 0 0 0 0 0 0 0 0 0 0 0 0
0 0 0 0 0 0 0 0 0 -0 -0 -0 -0 -0 -0 -0 -0 0 0 0 0 0 0 0 0 0 0 0 0 0 0 0 0 0 0 0 0 0 0 0 0 0 0
0 0 0 0 0 0 0 0 0 0 0 -0 -0 -0 -1 -1 -0 0 0 0 0 0 0 0 0 0 0 0 0 0 0 0 0 0 0 0 0 0 0 0 0 0 0
0 0 0 0 0 0 0 0 0 0 0 -0 -0 -1 -0 -0 -0 -0 0 0 0 0 0 0 0 0 0 0 0 0 0 0 0 0 0 0 0 0 0 0 0 0 0
0 0 0 0 0 0 0 0 0 0 0 0 -1 -0 0 -0 -0 0 0 0 0 0 0 0 0 0 0 0 0 0 0 0 0 0 0 0 0 0 0 0 0 0 0
0 0 0 0 0 0 0 0 0 0 0 0 0 0 0 0 0 1 1 1 0 1 0 0 1 0 0 0 0 0 0 0 0 0 0 0 0 0 0 0 0 0 0
0 0 0 0 0 0 0 0 0 1 1 1 1 1 1 1 1 1 1 1 1 0 1 1 1 1 1 0 0 0 1 1 0 0 0 0 0 0 0 0 0 0 0
0 0 0 0 0 0 0 0 1 1 1 2 2 2 2 2 2 1 1 1 1 1 1 1 1 1 1 0 0 0 1 1 0 0 0 0 0 0 0 0 0 0 0
0 0 0 0 0 0 0 1 1 2 1 2 2 2 2 2 3 2 1 2 2 2 2 1 1 1 1 0 0 0 1 1 1 0 0 0 0 0 0 0 0 0 0
1 0 0 0 0 0 0 1 1 1 1 2 2 3 3 3 4 4 4 3 4 4 3 2 2 1 1 0 0 0 1 1 1 0 0 0 0 0 0 0 0 0 0
1 1 1 2 2 0 0 1 1 1 2 2 3 3 3 3 4 5 6 7 5 5 4 3 3 3 3 1 0 0 1 1 1 0 0 0 0 0 0 0 0 0 0
0 0 0 0 0 1 1 1 1 1 1 1 2 4 4 5 6 6 8 8 6 8 7 6 4 4 1 0 0 0 0 0 0 0 0 0 0 0 0 0 0 0 0
0 0 0 0 0 0 0 0 0 1 1 1 1 3 5 7 8 9 9 9 9 9 6 6 6 5 1 0 0 0 0 0 0 0 0 0 0 0 0 0 0 0 0
0 0 0 0 0 0 0 0 0 0 0 1 0 2 4 5 8 11 11 13 9 10 13 10 6 3 2 0 0 0 0 0 0 0 0 0 0 0 0 0 0 0 0
0 0 0 0 0 0 -0 -0 -0 -0 -0 0 1 2 4 7 11 1 0 0 6 6 5 4 3 0 0 0 0 0 0 0 0 0 0 0 0 0 0 0 0 0 0
Wind_Speed_500mb
84 82 79 75 73 71 68 63 64 63 58 60 59 59 58 55 50 41 38 36 31 29 25 22 19 19 18 17 17 14 9 11 7 13 13 7 5 3 5 7 2 7 2
68 85 84 82 79 78 77 73 68 66 68 64 59 58 59 58 54 45 42 41 35 30 25 25 22 22 23 22 21 12 8 7 15 16 17 12 10 11 8 3 3 6 13
82 88 90 90 86 85 88 86 78 74 74 69 64 63 62 63 59 59 53 47 40 34 29 29 26 25 25 22 22 20 13 10 21 20 13 10 13 17 18 14 7 5 10
73 84 93 92 97 91 88 89 85 82 77 75 73 70 66 64 64 66 59 56 48 40 37 33 28 28 26 24 20 25 19 16 24 26 22 23 13 18 15 25 19 13 5
86 90 95 101 105 100 94 94 91 86 82 82 80 77 74 64 57 54 60 64 62 54 45 40 37 32 29 26 22 24 22 20 22 27 22 21 20 20 19 18 27 24 18
93 99 98 93 101 101 103 102 102 95 92 90 89 86 80 73 64 58 54 58 59 57 51 45 42 39 37 31 25 24 24 20 21 28 29 25 20 19 22 22 19 25 22
84 95 94 100 101 106 105 105 106 105 100 95 93 95 90 83 70 60 56 54 57 59 57 50 47 43 39 34 30 27 27 22 18 23 27 27 25 18 13 15 16 19 20
90 95 112 104 106 109 110 109 106 102 103 98 94 94 94 90 81 69 58 59 58 59 54 51 49 49 41 34 33 30 29 25 23 21 26 25 25 22 17 15 16 14 17
86 100 103 112 113 113 115 116 114 109 106 102 94 94 96 95 89 79 68 60 62 57 59 53 51 48 42 37 34 33 32 29 25 23 27 30 30 28 26 24 21 22 22
82 94 95 102 117 119 118 115 113 111 109 106 104 100 97 95 88 81 75 65 63 64 63 61 57 51 44 42 40 39 35 33 30 28 29 31 31 31 31 29 29 27 26
85 98 97 106 112 113 115 118 116 115 114 113 110 105 102 101 96 88 77 70 64 67 66 65 63 59 52 47 46 41 39 38 34 35 33 32 31 33 32 34 32 28 27
70 85 92 100 103 111 112 115 117 116 115 114 111 110 105 102 101 93 82 76 70 69 68 67 71 66 56 52 50 46 44 42 38 38 40 39 37 35 34 33 33 35 31
58 70 73 84 97 106 109 109 112 111 112 112 114 111 108 106 104 94 87 82 75 72 73 69 73 71 64 58 54 48 48 46 43 38 41 43 43 43 38 33 32 33 34
50 54 58 70 91 101 108 109 107 108 105 105 108 110 111 107 103 94 88 87 80 76 78 78 76 71 64 62 58 55 53 53 50 46 41 45 48 46 42 37 31 30 32
44 35 43 55 78 93 99 103 98 100 98 99 102 103 108 106 100 96 91 87 85 80 78 85 83 81 74 67 66 62 59 57 54 54 57 50 45 47 46 43 35 32 32
56 42 38 51 70 83 93 96 94 92 94 95 99 97 100 104 100 96 94 89 88 86 83 86 90 89 85 80 71 64 62 58 60 62 60 60 48 44 49 49 41 39 37
61 54 41 45 64 79 87 92 95 91 96 96 96 95 96 100 99 97 97 94 90 88 89 89 89 94 92 86 76 70 68 63 64 64 59 63 56 37 52 48 44 41 40
83 72 62 65 67 66 76 82 88 97 96 96 95 92 92 93 96 99 100 98 93 93 94 92 90 90 91 84 77 74 72 72 69 63 60 56 47 43 41 43 42 38 40
66 51 48 37 49 71 77 85 88 92 94 96 97 93 91 91 94 99 100 104 102 98 98 97 91 86 85 82 76 75 77 76 68 63 51 40 41 43 39 41 38 39 39
50 46 42 43 47 50 67 80 91 94 91 96 98 92 90 89 91 90 93 101 106 103 99 98 93 85 82 82 79 74 79 76 68 66 54 44 45 43 42 40 37 40 38
38 36 29 25 26 28 39 54 66 75 76 81 89 92 89 89 83 73 84 96 102 101 101 99 94 88 86 84 78 74 77 70 63 56 51 50 47 45 40 37 38 38 35
28 20 23 16 12 13 17 34 47 51 56 65 74 82 83 81 78 87 87 90 97 90 92 90 88 87 88 84 72 71 68 61 57 57 50 47 45 41 38 42 40 37 37
43 38 36 33 29 20 7 19 35 41 46 50 60 70 78 81 84 89 93 87 92 86 92 90 79 79 88 79 77 74 68 58 59 50 49 45 42 38 39 39 37 34 35
39 34 30 31 28 26 21 15 9 11 19 38 50 55 68 75 83 85 90 85 93 98 102 100 88 97 89 80 75 64 49 51 53 49 49 49 44 41 40 39 36 31 33
39 33 29 26 24 22 21 22 25 31 37 39 38 48 60 73 83 89 93 95 93 94 92 86 91 88 80 65 55 47 41 61 63 63 60 54 47 44 44 42 40 36 36
31 25 22 22 24 26 28 32 38 43 50 58 63 59 56 65 81 93 90 87 81 86 82 83 85 70 51 43 34 14 23 55 62 56 62 53 47 48 47 41 38 37 33
Wind_Direction_500mb
209 209 213 214 216 215 212 211 210 209 209 210 212 214 214 216 223 228 228 224 231 231 231 242 258 270 278 267 264 278 284 316 196 179 173 182 179 174 92 94 109 2 278
208 211 213 216 218 217 215 213 212 215 215 217 218 220 220 223 227 232 230 236 235 229 235 248 263 268 279 263 255 263 264 306 186 203 208 213 208 192 183 142 66 71 62
208 212 213 215 218 219 217 215 212 215 219 219 220 223 225 229 230 231 233 235 237 237 239 244 255 264 278 270 258 265 266 297 206 203 214 204 218 222 215 203 190 113 88
216 216 217 218 218 218 217 218 218 219 221 223 223 224 226 228 230 235 237 239 238 240 243 240 245 257 271 270 262 261 263 277 226 223 233 224 223 203 216 226 214 206 188
218 219 218 219 219 219 219 220 221 221 223 225 226 226 227 230 234 238 238 238 240 245 243 239 242 247 262 262 257 260 262 262 231 230 236 234 234 231 228 221 222 218 217
221 226 227 224 225 226 226 225 225 224 225 227 227 229 229 231 230 233 237 234 237 235 236 234 238 247 255 258 252 260 254 252 240 232 237 248 254 256 247 252 255 238 235
216 221 224 226 225 225 227 228 229 229 228 228 230 231 231 232 234 234 235 229 227 230 230 230 237 243 247 252 244 247 249 251 248 241 241 246 251 266 263 255 252 257 241
219 218 223 224 227 226 227 230 230 230 230 230 231 231 233 234 236 235 237 234 229 230 229 232 237 240 242 245 237 236 243 248 246 247 236 243 245 249 257 264 256 238 230
218 223 220 224 228 229 228 228 231 232 233 232 231 231 232 234 236 236 236 237 233 233 230 232 234 235 234 237 237 236 239 248 248 253 245 244 247 253 255 252 245 253 262
218 222 222 221 228 233 235 232 232 233 234 235 234 233 234 235 236 237 237 238 233 232 232 231 231 230 230 235 240 238 237 242 241 244 247 249 250 253 254 251 249 258 260
225 227 225 228 231 233 229 236 236 234 234 237 238 237 236 236 236 237 237 237 237 229 231 229 228 229 232 234 239 239 236 240 244 244 246 247 250 248 249 250 249 252 256
241 238 237 230 225 231 231 232 237 237 238 237 238 239 239 238 237 237 237 235 237 232 229 229 227 229 230 230 235 237 236 238 243 250 249 248 244 249 252 253 251 253 253
245 242 235 229 226 228 230 232 236 238 238 236 238 238 239 239 239 239 237 237 236 235 229 229 229 229 229 228 228 235 239 242 245 250 251 253 249 247 249 255 252 259 256
248 255 252 242 231 227 229 231 235 237 234 234 236 238 238 239 239 240 237 236 234 234 231 227 227 227 228 226 226 232 238 241 245 250 248 248 248 250 249 250 253 256 257
256 271 263 243 230 224 227 230 233 233 233 233 235 239 240 239 238 238 237 236 235 234 232 229 229 231 231 229 229 232 238 244 248 251 252 248 246 248 250 251 254 255 258
250 270 280 243 231 227 227 228 230 234 234 235 237 238 236 236 235 234 234 234 236 235 235 232 230 233 234 232 233 236 240 245 253 258 258 256 253 244 248 248 249 252 255
255 263 262 254 237 231 232 232 236 235 235 237 237 236 235 235 235 232 230 231 232 234 235 236 234 234 237 238 238 241 244 249 254 259 261 260 251 254 246 247 249 250 250
258 261 261 258 244 242 237 242 240 238 236 237 235 234 234 236 235 233 229 229 230 232 233 234 235 236 238 240 240 242 243 245 251 255 255 251 246 247 244 242 245 253 257
259 258 235 257 253 244 246 246 246 242 239 239 237 235 235 234 233 234 231 230 229 232 233 235 235 236 238 237 236 237 239 241 246 249 265 243 238 231 231 239 244 251 255
243 258 260 259 249 245 251 241 237 238 239 242 239 238 237 236 234 236 237 234 233 233 235 238 237 236 239 237 233 232 234 238 240 243 247 223 229 221 217 232 239 252 254
235 241 250 252 253 243 239 236 240 241 249 246 243 238 236 237 237 240 245 241 236 235 236 238 241 238 234 235 230 228 230 231 234 241 226 220 220 213 212 224 236 254 249
130 146 203 212 234 244 234 238 246 256 255 254 251 247 244 242 238 237 239 241 237 232 235 239 240 236 233 232 226 225 227 229 237 236 221 213 204 206 211 230 243 238 236
104 100 97 96 90 82 170 217 232 243 245 247 254 256 256 249 241 244 244 232 230 227 234 231 231 232 235 225 217 220 218 219 222 213 205 198 202 208 220 230 231 228 232
96 92 85 80 74 67 61 54 20 335 289 270 262 259 256 256 249 248 245 228 229 227 229 224 224 223 228 223 215 205 196 196 195 190 202 195 202 215 221 219 216 222 233
85 76 69 62 47 30 8 348 330 317 308 300 293 271 256 255 248 246 240 226 233 226 222 219 217 217 213 217 222 192 203 203 200 189 201 203 204 210 208 209 215 223 222
75 70 58 48 38 17 357 342 329 318 306 294 287 278 271 254 243 238 232 223 230 222 223 224 225 216 197 154 158 198 236 218 203 195 208 207 206 201 206 211 218 211 210
Wind_Speed_850mb
84 82 79 75 73 71 68 63 64 63 58 60 59 59 58 55 50 41 38 36 31 29 25 22 19 19 18 17 17 14 9 11 7 13 13 7 5 3 5 7 2 7 2
68 85 84 82 79 78 77 73 68 66 68 64 59 58 59 58 54 45 42 41 35 30 25 25 22 22 23 22 21 12 8 7 15 16 17 12 10 11 8 3 3 6 13
82 88 90 90 86 85 88 86 78 74 74 69 64 63 62 63 59 59 53 47 40 34 29 29 26 25 25 22 22 20 13 10 21 20 13 10 13 17 18 14 7 5 10
73 84 93 92 97 91 88 89 85 82 77 75 73 70 66 64 64 66 59 56 48 40 37 33 28 28 26 24 20 25 19 16 24 26 22 23 13 18 15 25 19 13 5
86 90 95 101 105 100 94 94 91 86 82 82 80 77 74 64 57 54 60 64 62 54 45 40 37 32 29 26 22 24 22 20 22 27 22 21 20 20 19 18 27 24 18
93 99 98 93 101 101 103 102 102 95 92 90 89 86 80 73 64 58 54 58 59 57 51 45 42 39 37 31 25 24 24 20 21 28 29 25 20 19 22 22 19 25 22
84 95 94 100 101 106 105 105 106 105 100 95 93 95 90 83 70 60 56 54 57 59 57 50 47 43 39 34 30 27 27 22 18 23 27 27 25 18 13 15 16 19 20
90 95 112 104 106 109 110 109 106 102 103 98 94 94 94 90 81 69 58 59 58 59 54 51 49 49 41 34 33 30 29 25 23 21 26 25 25 22 17 15 16 14 17
86 100 103 112 113 113 115 116 114 109 106 102 94 94 96 95 89 79 68 60 62 57 59 53 51 48 42 37 34 33 32 29 25 23 27 30 30 28 26 24 21 22 22
82 94 95 102 117 119 118 115 113 111 109 106 104 100 97 95 88 81 75 65 63 64 63 61 57 51 44 42 40 39 35 33 30 28 29 31 31 31 31 29 29 27 26
85 98 97 106 112 113 115 118 116 115 114 113 110 105 102 101 96 88 77 70 64 67 66 65 63 59 52 47 46 41 39 38 34 35 33 32 31 33 32 34 32 28 27
70 85 92 100 103 111 112 115 117 116 115 114 111 110 105 102 101 93 82 76 70 69 68 67 71 66 56 52 50 46 44 42 38 38 40 39 37 35 34 33 33 35 31
58 70 73 84 97 106 109 109 112 111 112 112 114 111 108 106 104 94 87 82 75 72 73 69 73 71 64 58 54 48 48 46 43 38 41 43 43 43 38 33 32 33 34
50 54 58 70 91 101 108 109 107 108 105 105 108 110 111 107 103 94 88 87 80 76 78 78 76 71 64 62 58 55 53 53 50 46 41 45 48 46 42 37 31 30 32
44 35 43 55 78 93 99 103 98 100 98 99 102 103 108 106 100 96 91 87 85 80 78 85 83 81 74 67 66 62 59 57 54 54 57 50 45 47 46 43 35 32 32
56 42 38 51 70 83 93 96 94 92 94 95 99 97 100 104 100 96 94 89 88 86 83 86 90 89 85 80 71 64 62 58 60 62 60 60 48 44 49 49 41 39 37
61 54 41 45 64 79 87 92 95 91 96 96 96 95 96 100 99 97 97 94 90 88 89 89 89 94 92 86 76 70 68 63 64 64 59 63 56 37 52 48 44 41 40
83 72 62 65 67 66 76 82 88 97 96 96 95 92 92 93 96 99 100 98 93 93 94 92 90 90 91 84 77 74 72 72 69 63 60 56 47 43 41 43 42 38 40
66 51 48 37 49 71 77 85 88 92 94 96 97 93 91 91 94 99 100 104 102 98 98 97 91 86 85 82 76 75 77 76 68 63 51 40 41 43 39 41 38 39 39
50 46 42 43 47 50 67 80 91 94 91 96 98 92 90 89 91 90 93 101 106 103 99 98 93 85 82 82 79 74 79 76 68 66 54 44 45 43 42 40 37 40 38
38 36 29 25 26 28 39 54 66 75 76 81 89 92 89 89 83 73 84 96 102 101 101 99 94 88 86 84 78 74 77 70 63 56 51 50 47 45 40 37 38 38 35
28 20 23 16 12 13 17 34 47 51 56 65 74 82 83 81 78 87 87 90 97 90 92 90 88 87 88 84 72 71 68 61 57 57 50 47 45 41 38 42 40 37 37
43 38 36 33 29 20 7 19 35 41 46 50 60 70 78 81 84 89 93 87 92 86 92 90 79 79 88 79 77 74 68 58 59 50 49 45 42 38 39 39 37 34 35
39 34 30 31 28 26 21 15 9 11 19 38 50 55 68 75 83 85 90 85 93 98 102 100 88 97 89 80 75 64 49 51 53 49 49 49 44 41 40 39 36 31 33
39 33 29 26 24 22 21 22 25 31 37 39 38 48 60 73 83 89 93 95 93 94 92 86 91 88 80 65 55 47 41 61 63 63 60 54 47 44 44 42 40 36 36
31 25 22 22 24 26 28 32 38 43 50 58 63 59 56 65 81 93 90 87 81 86 82 83 85 70 51 43 34 14 23 55 62 56 62 53 47 48 47 41 38 37 33
Wind_Direction_850mb
209 209 213 214 216 215 212 211 210 209 209 210 212 214 214 216 223 228 228 224 231 231 231 242 258 270 278 267 264 278 284 316 196 179 173 182 179 174 92 94 109 2 278
208 211 213 216 218 217 215 213 212 215 215 217 218 220 220 223 227 232 230 236 235 229 235 248 263 268 279 263 255 263 264 306 186 203 208 213 208 192 183 142 66 71 62
208 212 213 215 218 219 217 215 212 215 219 219 220 223 225 229 230 231 233 235 237 237 239 244 255 264 278 270 258 265 266 297 206 203 214 204 218 222 215 203 190 113 88
216 216 217 218 218 218 217 218 218 219 221 223 223 224 226 228 230 235 237 239 238 240 243 240 245 257 271 270 262 261 263 277 226 223 233 224 223 203 216 226 214 206 188
218 219 218 219 219 219 219 220 221 221 223 225 226 226 227 230 234 238 238 238 240 245 243 239 242 247 262 262 257 260 262 262 231 230 236 234 234 231 228 221 222 218 217
221 226 227 224 225 226 226 225 225 224 225 227 227 229 229 231 230 233 237 234 237 235 236 234 238 247 255 258 252 260 254 252 240 232 237 248 254 256 247 252 255 238 235
216 221 224 226 225 225 227 228 229 229 228 228 230 231 231 232 234 234 235 229 227 230 230 230 237 243 247 252 244 247 249 251 248 241 241 246 251 266 263 255 252 257 241
219 218 223 224 227 226 227 230 230 230 230 230 231 231 233 234 236 235 237 234 229 230 229 232 237 240 242 245 237 236 243 248 246 247 236 243 245 249 257 264 256 238 230
218 223 220 224 228 229 228 228 231 232 233 232 231 231 232 234 236 236 236 237 233 233 230 232 234 235 234 237 237 236 239 248 248 253 245 244 247 253 255 252 245 253 262
218 222 222 221 228 233 235 232 232 233 234 235 234 233 234 235 236 237 237 238 233 232 232 231 231 230 230 235 240 238 237 242 241 244 247 249 250 253 254 251 249 258 260
225 227 225 228 231 233 229 236 236 234 234 237 238 237 236 236 236 237 237 237 237 229 231 229 228 229 232 234 239 239 236 240 244 244 246 247 250 248 249 250 249 252 256
241 238 237 230 225 231 231 232 237 237 238 237 238 239 239 238 237 237 237 235 237 232 229 229 227 229 230 230 235 237 236 238 243 250 249 248 244 249 252 253 251 253 253
245 242 235 229 226 228 230 232 236 238 238 236 238 238 239 239 239 239 237 237 236 235 229 229 229 229 229 228 228 235 239 242 245 250 251 253 249 247 249 255 252 259 256
248 255 252 242 231 227 229 231 235 237 234 234 236 238 238 239 239 240 237 236 234 234 231 227 227 227 228 226 226 232 238 241 245 250 248 248 248 250 249 250 253 256 257
256 271 263 243 230 224 227 230 233 233 233 233 235 239 240 239 238 238 237 236 235 234 232 229 229 231 231 229 229 232 238 244 248 251 252 248 246 248 250 251 254 255 258
250 270 280 243 231 227 227 228 230 234 234 235 237 238 236 236 235 234 234 234 236 235 235 232 230 233 234 232 233 236 240 245 253 258 258 256 253 244 248 248 249 252 255
255 263 262 254 237 231 232 232 236 235 235 237 237 236 235 235 235 232 230 231 232 234 235 236 234 234 237 238 238 241 244 249 254 259 261 260 251 254 246 247 249 250 250
258 261 261 258 244 242 237 242 240 238 236 237 235 234 234 236 235 233 229 229 230 232 233 234 235 236 238 240 240 242 243 245 251 255 255 251 246 247 244 242 245 253 257
259 258 235 257 253 244 246 246 246 242 239 239 237 235 235 234 233 234 231 230 229 232 233 235 235 236 238 237 236 237 239 241 246 249 265 243 238 231 231 239 244 251 255
243 258 260 259 249 245 251 241 237 238 239 242 239 238 237 236 234 236 237 234 233 233 235 238 237 236 239 237 233 232 234 238 240 243 247 223 229 221 217 232 239 252 254
235 241 250 252 253 243 239 236 240 241 249 246 243 238 236 237 237 240 245 241 236 235 236 238 241 238 234 235 230 228 230 231 234 241 226 220 220 213 212 224 236 254 249
130 146 203 212 234 244 234 238 246 256 255 254 251 247 244 242 238 237 239 241 237 232 235 239 240 236 233 232 226 225 227 229 237 236 221 213 204 206 211 230 243 238 236
104 100 97 96 90 82 170 217 232 243 245 247 254 256 256 249 241 244 244 232 230 227 234 231 231 232 235 225 217 220 218 219 222 213 205 198 202 208 220 230 231 228 232
96 92 85 80 74 67 61 54 20 335 289 270 262 259 256 256 249 248 245 228 229 227 229 224 224 223 228 223 215 205 196 196 195 190 202 195 202 215 221 219 216 222 233
85 76 69 62 47 30 8 348 330 317 308 300 293 271 256 255 248 246 240 226 233 226 222 219 217 217 213 217 222 192 203 203 200 189 201 203 204 210 208 209 215 223 222
75 70 58 48 38 17 357 342 329 318 306 294 287 278 271 254 243 238 232 223 230 222 223 224 225 216 197 154 158 198 236 218 203 195 208 207 206 201 206 211 218 211 210